星链-37432(STARLINK-37432)

导读

STARLINK-37432(NORAD编号68896)是美国SpaceX公司星链(Starlink)星座中的一颗低轨互联网通信卫星,隶属于星链二代组网批次。该卫星运行于近地轨道(LEO),轨道高度约在300-600公里区间,倾角适配星链全球覆盖的星座构型设计,用于提供高速低延迟的卫星互联网服务。作为星链大规模组网计划的组成部分,它和数千颗同批次卫星共同推动星座扩容,扩展全球偏远区域、海洋及空中的网络覆盖能力,目前该卫星处于在轨运行状态,服务于星链星座的全球通信网络。

基本信息
目录编号:
68896
目录名称:
STARLINK-37432
国际标识:
2026-097B
轨道中心:
EARTH
卫星名称:
星链-37432
卫星全名:
星链-37432(STARLINK-37432)
卫星状态:
在轨 (已飞行127 天)
发射日期:
2026-04-30 UTC
国别 :
美国 (US)
星等 :
--
轨道信息
数据来源 国际轨道数据 AOE轨道数据
星历时间 2026-09-03T21:03:00+0800
1天前
查看轨道信息
2026-09-02T02:00:00+0800
2天前
查看轨道信息
半长轴 6843.651km 6843.718km
偏心率 0.0001479 0.0003443
轨道倾角 97.285° 97.285°
近地点辐角 98.123° 115.545°
升交点赤经 80.933° 79.171°
平近点角 262.018° 68.851°
近地点 464.501km 463.224km
远地点 466.527km 467.938km
周期 93.906分钟 93.907分钟
每日圈数 15.334551 15.334323
详细信息
固有亮度:
5
最大亮度:
2.5
卫星平台:
Starlink V1.0
覆盖范围:
全球
运营商:
太空探索技术公司
运营商所在国:
美国
制造商(研发单位):
太空探索技术公司
制造商所在国:
美国
使用方式:
暂无
卫星简介
Starlink 计划是 SpaceX 推出的全球卫星互联网项目,通过发射低轨道卫星,为全球尤其是偏远地区提供高速、低延迟的互联网服务。自 2019 年起,Starlink 已部署数千颗卫星,旨在缩小全球数字鸿沟,推动互联网普及。该项目还为军事、航空等行业提供通信支持,带来广泛经济效益。
2D轨道图
3D轨道图
轨道高度分析图
轨道倾角分析图
轨道综合分析图
查看轨道综合分析图
交会数据列表
事件ID 空间交会对象 最接近时刻(TCA) 交会距离 交会风险概率(CRP) 交会风险指数(CRI) 操作
CDM_260905-080905-794206-889623
2026-09-05T
08:09:26+0000
2.362 km
极远距离
1.951382E-6 低风险 0.41
CDM_260905-194806-309806-889621
2026-09-05T
19:48:00+0000
2.445 km
极远距离
1.854955E-6 低风险 0.4
CDM_260906-104706-124106-889621
OBJECT D (61241)
2026-09-06T
10:47:09+0000
2.856 km
极远距离
1.443384E-6 低风险 0.38